WESTFORD NEEDLES, 602

Orbit data source: Space-Track

WESTFORD NEEDLES, 602 is space debris in LEO originally from a launch on Thu, 09 May 1963 UTC launched from the Air Force Western Test Range (AFWTR). Debris objects in space refer to the collection of defunct objects orbiting the Earth. Examples of debris include non-operational satellites, rocket bodies, and fragments generated from explosions, collisions, or faulty payload assembly.

Loading next visibility...
Identifier
602, 1963-014E
Orbit
LEO
Country
Flag of USUS
Related business
Manufacturer
Unknown
Mission
Spacecraft
Bus & Motor
Unknown
Mass
~10 kg wet, ~10 kg dry
Launch date (UTC)
1963-05-09 (63 years ago)
Launch vehicle
Unknown
Launch site
Air Force Western Test Range (AFWTR)
Object type
Payload
Rocket body
Debris
Shape & HBR
Unknown
Radar Cross Section
Medium (>0.1 m² and <1 m²)

Expand to show TLE details & history
Last TLE update: 8 hours ago

TLE from 8 hours ago
0 WESTFORD NEEDLES
1   602U 63014E   25312.70190788  .00000029  00000-0  11988-1 0  9994
2   602  87.3585 210.5188 0023284 263.0897  96.7310  8.67236901978726
Epoch: 2025-11-08T16:50Z
TLE epoch observation values (Epoch: 2025-11-08T16:50:44.840Z)
Latitude
Longitude
-90.29577°
Altitude
3,633.978 km
Speed
6.309 km/s
True Right ascension
14h 02m 04s
True Declination
0° 00' 00"
Sunlit
Object was in daylight at epoch
Visualization orbit readout
Latitude
Unknown
Longitude
Unknown
Altitude
Unknown
Speed
Unknown
Apparent Right ascension
Unknown
Apparent Declination
Unknown
Sunlit
N/A
Visualization observer readout
Local Sidereal Time
21:27:32
Azimuth
Unknown
Elevation
Unknown
Doppler factor
Unknown
Orbital elements
Apogee altitude
3,650.119 km
Perigee altitude
3,603.528 km
Semi-major axis
10,004.961 km
Eccentricity
0.00233
Inclination
87.3585°
RAAN
210.5188°
Arg. of periapsis
263.0897°
True anomaly
96.99588°
Mean anomaly
96.731°
Eccentric anomaly
96.86345°
Mean motion
2.1688 °/min
Orbital period
165.99 mins
BSTAR
0.011988

Documentation

Showing up to 5 results
|